Location: Moscow
(55.8695°N, 37.5163°E)
Time: 19:29:28
(UTC+02:00)

ISS - Visible Passes

Search period start: 05 December 2021 00:00
Search period end: 15 December 2021 00:00
Orbit: 417 x 422 km, 51.6° (Epoch: 05 December)

Date Brightness Start Highest point End Pass type
(mag) Time Alt. Az. Time Alt. Az. Time Alt. Az.
05 Dec -1.6 16:39:58 10° W 16:42:48 24° SSW 16:45:38 10° SE visible
06 Dec -1.8 15:52:33 10° W 15:55:34 29° SSW 15:58:34 10° SE visible
06 Dec -0.6 17:30:28 10° WSW 17:31:36 11° SW 17:32:45 10° SSW visible
07 Dec -0.8 16:42:24 10° WSW 16:44:27 15° SSW 16:46:31 10° S visible
08 Dec -0.9 15:54:43 10° WSW 15:57:15 20° SSW 15:59:47 10° SSE visible
10 Dec -0.2 15:57:42 10° SW 15:58:48 11° SW 15:59:54 10° SSW visible
